7 * 24
多渠道服务支持
STARLINK-36375是美国太空探索技术公司发射的星链计划卫星,发射于2026年2月20日,归属星链星座组网体系,主要用于为全球提供高速互联网覆盖服务,尤其服务偏远地区、海上、航空等传统网络难以覆盖的场景。作为星链低轨星座的新增节点,它进一步扩充了星座规模,提升星座全球服务的容量与稳定性,延续星链低轨卫星通信的技术路线,依托近地轨道降低通信传输延迟。
美国
(US)
| 数据来源 | 国际轨道数据 |
| 星历时间: | 2026-05-24T05:18:15+0800 1天前 查看轨道信息 |
| 半长轴: | 6840.846km |
| 偏心率: | 0.0001023 |
| 轨道倾角: | 53.158° |
| 近地点辐角 | 88.847° |
| 升交点赤经 | 213.193° |
| 平近点角 | 271.265° |
| 近地点: | 462.009km |
| 远地点: | 463.409km |
| 周期: | 93.848分钟 |
| 每日圈数: | 15.343983 |